Location: Brno
(49.2000°N, 16.6330°E)
Time: 06:56:48
(UTC+02:00)

Daily predictions for brighter satellites

Satellite Brightness Start Highest point End
(mag) Time Altitude Azimuth Time Altitude Azimuth Time Altitude Azimuth
Cosmos 2360 Rocket 2.8 20:18:17 10° S 20:23:17 34° ESE 20:28:18 10° NE
SL-8 R/B 4.1 20:19:02 10° W 20:23:44 57° SSW 20:28:25 10° ESE
Cosmos 1980 Rocket 3.5 20:19:04 10° SW 20:24:26 45° NW 20:29:49 10° NNE
Meteor 1-23 Rocket 4.3 20:20:18 10° N 20:25:51 65° ENE 20:31:24 10° SSE
Okean 1-7 Rocket 4.2 20:21:46 10° N 20:26:00 38° ENE 20:30:15 10° SE
USA 267 4.0 20:19:56 10° SSE 20:26:15 49° SW 20:32:37 10° WNW
BREEZE-M DEB 4.4 20:12:07 10° W 20:28:21 88° N 20:32:21 10° E
NOSS 2-3 (D) 4.0 20:25:07 10° SSW 20:29:50 64° SE 20:35:27 10° NE
COSMOS 2428 3.9 20:30:53 10° SE 20:34:57 20° E 20:39:01 10° NE
CZ-4B DEB 4.1 20:32:55 10° ESE 20:35:05 19° ENE 20:37:14 10° NNE
NOSS 3-2 (C) 4.5 20:28:58 10° NW 20:35:57 50° NE 20:43:39 10° ESE
Cosmos 2151 Rocket 4.0 20:32:25 10° SSW 20:36:48 69° WNW 20:41:13 10° N
Resurs 01 Rocket 2.2 20:33:09 10° S 20:37:34 63° WSW 20:42:00 10° NNW
Cosmos 1536 Rocket 4.3 20:33:41 10° NNW 20:37:56 56° W 20:42:11 10° S
Spot 2 Rocket 3.8 20:35:56 10° S 20:41:01 70° WSW 20:46:07 10° NNW
USA 186 2.5 20:37:48 10° S 20:41:10 60° W 20:44:29 10° NNW
Helios 1B rocket 3.5 20:40:03 10° NE 20:43:29 25° E 20:46:55 10° SSE
Cosmos 1500 4.4 20:44:07 10° SE 20:47:16 25° E 20:50:28 10° NE
Cosmos 2333 Rocket 3.9 20:46:14 11° ESE 20:47:56 12° E 20:50:12 10° ENE
Meteor 1-5 Rocket 4.1 20:42:53 10° S 20:48:07 65° E 20:53:24 10° NNE
ERBS 4.2 20:45:52 10° W 20:49:00 30° NNW 20:52:08 10° NE
ERS-1 Rocket 3.6 20:47:03 10° SE 20:51:39 40° ENE 20:56:19 10° N
CENTAUR R/B 4.0 20:46:18 10° NW 20:53:08 37° NNE 21:00:38 10° E
Cosmos 1892 Rocket 4.3 20:50:16 10° N 20:54:22 36° ENE 20:57:46 14° SE
Meteor 2-4 Rocket 4.4 20:49:54 10° NNW 20:55:22 57° W 21:00:57 10° S
Cosmos 1818 4.5 20:50:59 10° SSE 20:55:25 26° ESE 20:59:53 10° ENE
ATLAS 2AS CENTAUR R/B 3.0 20:48:45 10° SSW 20:56:31 75° SE 21:04:40 10° NE
Abrixas 4.3 20:55:11 10° S 20:56:04 13° SSE 20:56:04 13° SSE
BREEZE-M DEB (TANK) 1.5 20:56:46 10° SW 20:59:31 42° SSE 21:00:35 21° E
Molniya-1 3.5 20:57:11 10° NW 20:59:43 85° SW 21:02:20 17° SE
Okean 2 3.3 20:58:33 10° N 21:02:40 80° E 21:06:45 10° SSE
NOSS 2-3 (E) 4.3 21:01:47 10° SW 21:06:39 73° NW 21:12:31 10° NE
SPOT 5 3.8 21:04:20 16° ESE 21:07:19 30° ENE 21:11:16 10° N
Lacrosse 5 1.8 21:02:46 10° SW 21:07:51 83° SE 21:12:57 10° ENE
Cosmos 1975 3.6 21:06:55 16° SE 21:09:31 31° E 21:13:04 10° NNE
Spot 1 4.4 21:04:40 10° SSE 21:09:46 76° ENE 21:14:43 10° NNW
Cosmos 1066 Rocket 4.4 21:05:11 10° N 21:10:31 54° ENE 21:14:58 15° SSE
Envisat 3.9 21:05:42 10° S 21:10:36 49° W 21:15:34 10° NNW
Cosmos 1544 Rocket 4.4 21:08:15 16° SE 21:11:03 30° E 21:14:58 10° NNE
ARGOS 3.6 21:07:44 16° SE 21:11:47 46° ENE 21:16:54 10° N
Cosmos 1455 Rocket 3.8 21:20:41 21° SE 21:23:02 35° E 21:27:07 10° NNE
Cosmos 2263 Rocket 4.1 21:18:34 10° NW 21:23:11 26° WSW 21:27:46 10° SSW
Cosmos 1244 Rocket 4.4 21:22:32 10° S 21:28:38 71° E 21:34:45 10° NNE
Cosmos 1844 Rocket 2.7 21:23:45 10° NNW 21:29:29 88° WSW 21:33:32 20° SSE
Meteor 1-29 2.9 21:26:44 10° NNE 21:30:08 59° E 21:32:12 21° S
Cosmos 1437 Rocket 3.7 21:30:52 27° ESE 21:31:36 29° E 21:35:03 10° NNE
Cosmos 1025 Rocket 4.0 21:27:38 10° NNW 21:31:43 45° W 21:35:47 10° SSW
Cosmos 1939 Rocket 4.4 21:28:23 10° SSW 21:31:59 33° W 21:35:33 10° NNW
Cosmos 1666 3.9 21:32:10 24° E 21:32:18 24° E 21:35:27 10° NE
Cosmos 1302 Rocket 4.0 21:27:09 10° S 21:32:21 62° ESE 21:37:35 10° NNE
YAOGAN 6 3.7 21:29:22 10° S 21:32:42 40° W 21:36:03 10° NNW
Cosmos 2278 Rocket 2.7 21:27:57 10° NNW 21:33:27 46° NE 21:36:36 24° ESE
USA 215 4.1 21:28:02 10° ENE 21:34:18 50° NNW 21:40:33 10° W
MetOp-B 4.1 21:31:24 19° SSE 21:35:23 79° ENE 21:40:46 10° NNW
Terra 3.2 21:33:41 19° E 21:35:27 24° ENE 21:39:14 10° N
Cosmos 1486 Rocket 4.2 21:30:22 10° NNW 21:35:36 70° WSW 21:39:31 18° S
H-2A R/B 2.3 21:33:17 25° SE 21:35:55 47° ENE 21:40:38 10° N
Cosmos 2322 Rocket 3.9 21:31:18 10° WSW 21:36:34 37° NW 21:41:51 10° NNE
SeaSat 1 2.4 21:31:45 10° NNE 21:36:44 86° ESE 21:41:40 10° SSW
Cosmos 1110 Rocket 4.5 21:36:30 10° SW 21:41:38 62° WNW 21:46:48 10° NNE
COSMOS 2455 4.1 21:36:36 10° NNW 21:41:56 31° NE 21:45:42 17° E
NOSS 3-2 (A) 4.1 21:38:58 10° NW 21:46:21 76° SW 21:51:44 23° SSE
Meteor 1-21 4.4 21:42:07 10° N 21:47:39 54° ENE 21:50:21 29° SE
Helios 1A 4.3 21:44:30 10° SSW 21:48:28 38° W 21:52:27 10° NNW
Cosmos 2219 Rocket 2.4 21:45:46 16° S 21:50:02 45° ESE 21:55:24 10° NE
Cosmos 2237 4.2 21:44:21 10° SSW 21:50:03 87° WNW 21:55:49 10° NNE
SL-16 R/B 4.2 21:45:58 10° WSW 21:50:57 31° NW 21:55:58 10° NNE
Cosmos 1842 3.9 21:52:07 10° N 21:55:49 37° ENE 21:56:16 36° E
Cosmos 1743 2.7 21:55:31 47° SE 21:56:15 56° E 22:00:00 10° NNE
ATLAS 3B R/B 3.9 21:51:42 10° NW 21:57:33 33° WSW 22:02:38 12° S
Abrixas rocket 3.7 21:55:58 10° W 21:58:35 24° SSW 21:58:35 24° SSW
EXPRESS MD2 3.6 21:55:31 10° W 21:58:47 82° N 22:03:51 15° E
DNEPR-1 R/B 4.5 21:54:43 10° NNW 21:58:50 40° NE 22:00:35 28° E
NOSS 0 Rocket 4.4 21:57:14 29° SSE 21:59:32 39° ESE 22:05:15 10° NE
ATLAS CENTAUR R/B 2.6 21:59:17 10° NNW 22:02:24 25° NE 22:03:23 23° ENE
Cosmos 2322 4.4 21:59:12 10° SW 22:04:46 57° WNW 22:10:24 10° NNE
Cosmos 1602 Rocket 3.5 22:00:31 10° N 22:04:50 62° ENE 22:05:49 47° SE
Cosmos 2360 Rocket 3.3 22:01:44 10° SW 22:07:08 47° NW 22:12:35 10° NNE
SL-16 R/B 4.0 22:10:08 14° ENE 22:10:08 14° ENE 22:11:49 10° ENE
Timation 1 Rocket 4.3 22:03:11 10° NNW 22:09:12 86° ENE 22:11:48 36° SSE
H-2A R/B 3.5 22:08:52 24° ENE 22:09:29 25° ENE 22:13:06 10° N
Aureole 2 Rocket 2.3 22:13:34 72° NNE 22:13:34 72° NNE 22:16:25 10° NNE
Cosmos 1354 Rocket 4.4 22:10:27 10° NNW 22:15:43 61° WSW 22:18:07 32° S
Cosmos 1844 4.3 22:11:21 10° NW 22:16:52 52° WSW 22:19:41 28° S
SL-08 RB Rocket 4.0 22:15:12 34° S 22:17:02 64° WSW 22:21:33 10° NNW
COSMOS 2428 2.9 22:12:51 10° SW 22:18:36 76° WNW 22:24:21 10° NNE
Helios 1B rocket 4.0 22:15:07 10° N 22:18:52 35° WNW 22:22:36 10° SW
Cosmos 1745 Rocket 3.9 22:17:10 21° S 22:21:26 88° W 22:27:39 10° N
YAOGAN 11 4.3 22:20:43 42° SSW 22:22:01 65° WSW 22:26:19 10° NNW
USA 245 4.2 22:22:32 31° SSW 22:24:15 47° WSW 22:27:55 10° NNW
Meteor 1-4 Rocket 4.0 22:26:31 29° NE 22:26:31 29° NE 22:28:51 10° NNE
NOSS 3-2 (C) 4.3 22:19:56 10° NW 22:27:15 60° WSW 22:31:10 31° S
Cosmos 1626 Rocket 3.6 22:23:02 10° NNW 22:27:22 73° W 22:28:16 53° SSW
IGS 5A 3.5 22:29:14 60° E 22:29:24 61° ENE 22:33:32 10° N
ERS-1 Rocket 4.5 22:27:04 15° SSW 22:30:31 31° W 22:34:59 10° NNW
Cosmos 2333 Rocket 2.1 22:28:08 28° SSW 22:31:11 74° ESE 22:36:51 10° NNE
DMSP B5D2-2 4.0 22:31:14 10° NNE 22:36:30 69° ESE 22:37:35 54° SSE
Cosmos 2369 Rocket 4.2 22:33:19 10° N 22:37:20 19° NE 22:40:19 13° ENE
SPOT 1/Viking Rocket 3.9 22:35:56 36° SSW 22:37:52 59° WSW 22:43:02 10° NNW
Cosmos 1818 3.9 22:33:12 10° SW 22:38:36 65° NW 22:44:03 10° NE
Cosmos 1386 Rocket 4.5 22:35:50 29° SSW 22:39:15 83° W 22:45:39 10° N
Cosmos 2237 Rocket 2.1 22:39:50 53° SSE 22:40:48 62° ESE 22:46:22 10° NE
Cosmos 1777 Rocket 4.4 22:39:38 10° NNW 22:44:47 49° ENE 22:45:34 45° E
CENTAUR R/B 3.0 22:37:04 10° NW 22:44:50 87° NE 22:48:12 41° SE
SPOT 5 3.9 22:43:35 27° SW 22:45:20 36° W 22:49:34 10° NNW
Cosmos 1980 3.6 22:46:32 49° S 22:48:07 75° ESE 22:53:49 10° NNE
ATLAS 2AS CENTAUR R/B 4.2 22:40:38 10° W 22:48:13 44° NNW 22:55:58 10° NE
USA 81 3.9 22:44:22 10° N 22:49:42 85° E 22:50:33 64° SSE
Cosmos 1825 Rocket 3.6 22:46:40 10° N 22:50:41 64° NE 22:50:41 64° NE
Lacrosse 5 3.1 22:46:26 10° W 22:51:14 40° NNW 22:56:02 10° NE
Landsat 7 4.3 22:56:44 46° SW 22:57:33 52° W 23:02:14 10° NNW
NOSS 3-4 (A) 3.5 22:51:42 10° SW 22:58:01 87° NW 23:04:38 10° NE
NOSS 3-4 (C) 3.4 22:51:48 10° SW 22:58:07 87° NW 23:04:44 10° NE
Meteor 1-15 Rocket 4.2 22:58:14 60° SE 22:59:02 68° E 23:04:56 10° NNE
Cosmos 2074 Rocket 4.3 23:06:55 47° E 23:07:16 47° E 23:13:12 10° NNE
Cosmos 1666 4.3 23:07:05 28° W 23:07:51 30° WNW 23:11:19 10° N
GP-B 3.7 23:03:34 10° N 23:07:54 51° W 23:08:21 48° WSW
CZ-2C R/B 3.8 23:08:07 35° ENE 23:08:07 35° ENE 23:12:32 10° N
Cosmos 2297 3.5 23:02:26 10° NNW 23:08:08 84° WSW 23:08:48 70° S
Cosmos 1758 Rocket 3.8 23:03:49 10° N 23:07:37 64° NNE 23:07:37 64° NNE
Cosmos 2184 Rocket 4.3 23:08:44 46° E 23:08:59 47° E 23:14:54 10° NNE
Cosmos 972 Rocket 4.3 23:08:58 53° SSW 23:10:28 84° WNW 23:16:49 10° NNE
Cosmos 968 Rocket 3.8 23:07:26 10° NNW 23:12:24 52° WSW 23:12:47 51° WSW
Cosmos 1992 Rocket 4.4 23:10:29 34° SW 23:12:34 59° WNW 23:17:44 10° NNE
Terra 2.2 23:12:34 51° WSW 23:12:54 52° W 23:17:34 10° NNW
H-2A R/B 3.6 23:13:56 22° WSW 23:15:33 26° W 23:19:41 10° NW
USA 215 4.1 23:10:28 10° E 23:16:41 47° N 23:22:53 10° WNW
Cosmos 2278 Rocket 3.2 23:12:19 10° NW 23:17:24 35° WSW 23:18:27 32° SW
Cosmos 1707 3.9 23:14:11 10° N 23:16:49 40° N 23:16:49 40° N
Meteor 2-13 Rocket 4.3 23:17:47 66° SE 23:18:23 71° E 23:24:31 10° NNE
CZ-2C R/B 3.8 23:18:08 10° NNE 23:21:56 30° ENE 23:21:56 30° ENE
COSMOS 2455 2.7 23:22:22 10° NW 23:28:24 72° WSW 23:28:49 69° SSW
Cosmos 1709 Rocket 4.4 23:27:00 40° SW 23:29:07 59° WNW 23:35:21 10° N
Cosmos 2181 Rocket 4.5 23:26:31 10° NNW 23:32:45 54° W 23:34:17 44° SW
Cosmos 2219 Rocket 3.5 23:28:54 10° WSW 23:34:07 37° NW 23:39:22 10° NNE
ARGOS Delta rocket 4.2 23:31:19 10° N 23:35:51 58° WNW 23:35:54 58° WNW
CZ-4B R/B 3.9 23:32:42 10° NNE 23:36:23 51° NE 23:36:23 51° NE
ATLAS CENTAUR R/B 3.2 23:37:59 10° NW 23:39:38 23° WNW 23:39:38 23° WNW
RESURS DK-1 3.5 23:43:24 43° NNW 23:43:24 43° NNW 23:46:43 10° NNE
Cosmos 1726 Rocket 4.3 23:45:06 53° NNW 23:45:06 53° NNW 23:48:36 10° N
H-2A R/B 3.2 23:46:00 39° WNW 23:46:00 39° WNW 23:49:31 10° NNW
ALOS 2 3.7 23:47:19 39° NNE 23:47:19 39° NNE 23:50:33 10° N
ATLAS CENTAUR R/B 2.9 23:35:10 10° WNW 23:48:04 90° ENE 23:48:41 74° SE
Cosmos 1943 Rocket 3.5 23:43:26 10° NNW 23:48:16 30° NE 23:49:27 27° ENE
Mayak 1.2 23:46:51 10° NE 23:47:45 14° NE 23:47:45 14° NE
SL-16 R/B 2.1 23:51:59 83° NNE 23:51:59 83° NNE 23:57:28 10° NNE
Cosmos 1340 Rocket 4.3 23:47:56 10° NNW 23:50:21 34° NW 23:50:21 34° NW
